Retour au catalogue

FENGYUN 1C DEB

ActifSSO
NORAD 38125·DEBRIS·🇨🇳 China

Lancé May 10, 1999 depuis Taiyuan Satellite Launch Center

Loading…

Prochains Passages (prochaines 24 heures)

TLE

FraisSource: Space-Track

Époque: Sep 14, 2026, 10:13 UTC

1 38125U 99025EPW 26257.42628682  .00000352  00000-0  52363-3 0  9996
2 38125 100.2188 326.8633 0408268  18.8735 342.7035 13.31311504855028

Suivez FENGYUN 1C DEB en temps réel avec AllMySat

Download on the App Store